This is the latest recevied weather packets stored in our database for station/object KN6WGU. If no packets are shown the sender has not sent any weather packets the latest 10 day(s).
| Time | Temp. | Humidity | Pressure | Rain* | Wind** | Luminosity | Snow |
|---|---|---|---|---|---|---|---|
| 1787846683 | 23.89° C | 83% | 1008.1 hPa | 0 mm | - | 72 W/m² | - |
| 1787846377 | 23.89° C | 83% | 1007.8 hPa | 0 mm | - | 68 W/m² | - |
| 1787846073 | 23.89° C | 83% | 1007.9 hPa | 0 mm | - | 75 W/m² | - |
| 1787845769 | 23.89° C | 84% | 1007.9 hPa | 0 mm | - | 74 W/m² | - |
| 1787845464 | 23.89° C | 83% | 1007.8 hPa | 0 mm | - | 70 W/m² | - |
| 1787845161 | 23.89° C | 84% | 1008 hPa | 0 mm | - | 71 W/m² | - |
| 1787844856 | 23.89° C | 84% | 1008 hPa | 0 mm | - | 77 W/m² | - |
| 1787844555 | 23.89° C | 82% | 1007.9 hPa | 0 mm | - | 68 W/m² | - |
| 1787844250 | 23.89° C | 83% | 1007.8 hPa | 0 mm | - | 77 W/m² | - |
| 1787843949 | 23.89° C | 83% | 1007.9 hPa | 0 mm | - | 88 W/m² | - |
| 1787843644 | 23.89° C | 85% | 1007.8 hPa | 0 mm | - | 135 W/m² | - |
| 1787843341 | 23.89° C | 85% | 1007.8 hPa | 0 mm | - | 106 W/m² | - |
| 1787843036 | 23.33° C | 85% | 1007.7 hPa | 0 mm | - | 131 W/m² | - |
| 1787842736 | 23.33° C | 86% | 1007.6 hPa | 0 mm | - | 76 W/m² | - |
| 1787842430 | 23.33° C | 85% | 1007.6 hPa | 0 mm | - | 64 W/m² | - |
| 1787842125 | 23.33° C | 84% | 1007.5 hPa | 0 mm | - | 71 W/m² | - |
| 1787841820 | 23.33° C | 85% | 1007.4 hPa | 0 mm | - | 189 W/m² | - |
| 1787841516 | 23.33° C | 85% | 1007.4 hPa | 0 mm | - | 60 W/m² | - |
| 1787841215 | 23.33° C | 86% | 1007.3 hPa | 0 mm | - | 56 W/m² | - |
| 1787840910 | 22.78° C | 86% | 1007.3 hPa | 0 mm | - | 56 W/m² | - |
| 1787840605 | 22.78° C | 86% | 1007.4 hPa | 0 mm | - | 57 W/m² | - |
| 1787840301 | 22.78° C | 87% | 1007.2 hPa | 0 mm | - | 55 W/m² | - |
| 1787840000 | 22.78° C | 86% | 1007.3 hPa | 0 mm | - | 79 W/m² | - |
| 1787839695 | 22.78° C | 85% | 1007.2 hPa | 0 mm | - | 55 W/m² | - |
| 1787839390 | 22.78° C | 86% | 1006.9 hPa | 0 mm | - | 56 W/m² | - |
* Rain latest hour (hover to see other rain measurements)
** Current wind speed in m/s (hover to see current wind gust speed)